TimeAKDT,TemperatureF,Dew PointF,Humidity,Sea Level PressureIn,VisibilityMPH,Wind Direction,Wind SpeedMPH,Gust SpeedMPH,PrecipitationIn,Events,Conditions,WindDirDegrees,DateUTC
12:53 AM,30.9,18.0,59,30.09,10.0,ENE,5.8,-,N/A,,Overcast,70,2013-03-28 08:53:00
1:53 AM,30.0,18.0,61,30.08,10.0,ENE,5.8,-,N/A,,Overcast,60,2013-03-28 09:53:00
2:53 AM,30.9,18.0,59,30.07,10.0,NE,3.5,-,N/A,,Overcast,50,2013-03-28 10:53:00
3:53 AM,32.0,19.0,59,30.06,10.0,ENE,5.8,-,N/A,,Overcast,60,2013-03-28 11:53:00
4:53 AM,32.0,19.9,61,30.04,10.0,ENE,8.1,-,N/A,,Overcast,60,2013-03-28 12:53:00
5:53 AM,32.0,19.9,61,30.03,10.0,ENE,5.8,-,N/A,,Overcast,70,2013-03-28 13:53:00
6:53 AM,34.0,21.9,61,30.01,10.0,ENE,9.2,-,N/A,,Overcast,70,2013-03-28 14:53:00
7:53 AM,33.1,23.0,66,29.99,10.0,Calm,Calm,-,N/A,,Overcast,0,2013-03-28 15:53:00
8:53 AM,36.0,23.0,59,29.99,10.0,East,9.2,-,N/A,,Overcast,100,2013-03-28 16:53:00
9:53 AM,36.0,23.0,59,29.98,10.0,Calm,Calm,-,N/A,,Mostly Cloudy,0,2013-03-28 17:53:00
10:53 AM,37.0,24.1,59,29.97,10.0,SE,3.5,-,N/A,,Overcast,140,2013-03-28 18:53:00
11:53 AM,37.9,24.1,57,29.96,10.0,ESE,3.5,-,N/A,,Overcast,120,2013-03-28 19:53:00
12:53 PM,37.9,24.1,57,29.93,10.0,East,17.3,27.6,N/A,,Overcast,90,2013-03-28 20:53:00
1:53 PM,37.9,27.0,65,29.92,10.0,ENE,5.8,-,N/A,,Mostly Cloudy,70,2013-03-28 21:53:00
2:53 PM,37.9,28.0,68,29.90,10.0,ENE,11.5,19.6,N/A,,Overcast,70,2013-03-28 22:53:00
3:53 PM,36.0,30.0,79,29.90,9.0,ESE,9.2,-,N/A,,Overcast,110,2013-03-28 23:53:00
4:07 PM,35.6,30.2,81,29.89,4.0,ESE,8.1,-,0.00,Snow,Light Snow,110,2013-03-29 00:07:00
4:37 PM,33.8,30.2,87,29.88,2.0,East,9.2,-,0.01,Snow,Light Snow,90,2013-03-29 00:37:00
4:49 PM,33.8,30.2,87,29.87,1.0,East,8.1,-,0.02,Snow,Light Snow,80,2013-03-29 00:49:00
4:53 PM,34.0,30.0,85,29.88,1.0,East,10.4,-,0.02,Snow,Light Snow,80,2013-03-29 00:53:00
5:53 PM,34.0,30.9,89,29.85,1.0,ENE,11.5,-,0.03,Snow,Light Snow,70,2013-03-29 01:53:00
6:48 PM,33.8,30.2,87,29.82,2.0,NE,10.4,-,0.01,Snow,Light Snow,50,2013-03-29 02:48:00
6:53 PM,34.0,30.9,89,29.83,2.0,NE,9.2,-,0.01,Snow,Light Snow,50,2013-03-29 02:53:00
7:53 PM,35.1,30.9,85,29.81,4.0,ENE,11.5,-,0.02,Snow,Light Snow,70,2013-03-29 03:53:00
8:53 PM,35.1,30.0,82,29.81,7.0,ENE,15.0,-,0.02,Snow,Light Snow,60,2013-03-29 04:53:00
9:53 PM,36.0,30.0,79,29.80,9.0,ENE,18.4,-,0.00,,Overcast,70,2013-03-29 05:53:00
10:37 PM,37.4,28.4,70,29.77,10.0,East,15.0,-,0.01,,Overcast,80,2013-03-29 06:37:00
10:53 PM,37.0,28.9,73,29.77,10.0,East,11.5,-,0.01,,Overcast,90,2013-03-29 06:53:00
11:53 PM,37.0,30.0,76,29.79,10.0,SE,8.1,-,0.00,,Overcast,130,2013-03-29 07:53:00